Change the Weather History Date:

Tuesday, December 11, 2012

  Actual Average Record
Temperature  
Mean Temperature 20 °F -  
Max Temperature 25 °F 34 °F 48 °F (1997)
Min Temperature 15 °F 24 °F 5 °F (1998)
Degree Days  
Heating Degree Days 45    
Moisture  
Dew Point 19 °F    
Average Humidity 90    
Maximum Humidity 100    
Minimum Humidity 80    
Precipitation  
Precipitation 0.03 in 0.04 in - ()
Sea Level Pressure  
Sea Level Pressure 29.92 in    
Wind  
Wind Speed 3 mph ()    
Max Wind Speed 6 mph    
Max Gust Speed -    
Visibility 2.4 miles    
Events Snow    
Averages and records for this station are not official NWS values.
T = Trace of Precipitation, MM = Missing Value Source: Averaged Metar Reports

Daily Weather History Graph

Daily Weather History Graph

Search for Another Location

Airport or City:

Trip Planner

Search our weather history database for the weather conditions in past years. The results will help you decide how hot, cold, wet, or windy it might be!

Date:

Astronomy

Dec. 11, 2012 Rise Set
Actual Time 7:35 AM CET 3:23 PM CET
Civil Twilight 6:54 AM CET 4:04 PM CET
Nautical Twilight 6:10 AM CET 4:48 PM CET
Astronomical Twilight 5:29 AM CET 5:29 PM CET
Moon 4:58 AM CET (12/11) 1:54 PM CET (12/11)
Length of Visible Light 9h 10m
Length of Day
7h 48m
Waning Crescent, 5% of the Moon is Illuminated
Dec 11
Waning Crescent
Dec 13
New
Dec 20
First Quarter
Dec 28
Full
Jan 5
Last Quarter

Hourly Weather History & Observations

Time (CET) Temp. Windchill Dew Point Humidity Pressure Visibility Wind Dir Wind Speed Gust Speed Precip Events Conditions
12:00 AM 21.2 °F 14.9 °F 19.4 °F 93% 29.83 in 3.1 mi ESE 4.6 mph - N/A   Mostly Cloudy
12:30 AM 21.2 °F 16.4 °F 19.4 °F 93% 29.83 in 3.1 mi SE 3.5 mph - N/A   Mostly Cloudy
1:00 AM 21 °F - 19 °F 89% 29.87 in 3 mi East 2.2 mph - -   Mist
1:00 AM 21.2 °F 16.4 °F 19.4 °F 93% 29.83 in 3.1 mi ESE 3.5 mph - N/A   Mostly Cloudy
1:30 AM 21.2 °F 14.9 °F 19.4 °F 93% 29.83 in 3.1 mi ESE 4.6 mph - N/A   Mostly Cloudy
2:00 AM 21.2 °F 13.6 °F 19.4 °F 93% 29.83 in 3.1 mi ESE 5.8 mph - N/A Snow Light Snow
2:30 AM 21.2 °F 16.4 °F 19.4 °F 93% 29.83 in 3.1 mi ESE 3.5 mph - N/A Snow Light Snow
3:00 AM 21.2 °F - 19.4 °F 93% 29.83 in 2.5 mi SE 2.3 mph - N/A Snow Light Snow
3:30 AM 21.2 °F 14.9 °F 19.4 °F 93% 29.83 in 2.5 mi ESE 4.6 mph - N/A   Mostly Cloudy
4:00 AM 21 °F - 19 °F 91% 29.88 in 2 mi East 4.5 mph - - Snow Light Snow
4:00 AM 21.2 °F 14.9 °F 19.4 °F 93% 29.83 in 2.5 mi East 4.6 mph - N/A   Mostly Cloudy
4:30 AM 21.2 °F 14.9 °F 19.4 °F 93% 29.83 in 2.5 mi ESE 4.6 mph - N/A Snow Light Snow
5:00 AM 21.2 °F - 19.4 °F 93% 29.83 in 2.5 mi East 2.3 mph - N/A Snow Light Snow
5:30 AM 21.2 °F - 19.4 °F 93% 29.83 in 2.5 mi SE 2.3 mph - N/A Snow Light Snow
6:00 AM 21.2 °F - 19.4 °F 93% 29.86 in 2.2 mi SSE 2.3 mph - N/A Snow Light Snow
6:30 AM 21.2 °F 16.4 °F 19.4 °F 93% 29.86 in 2.2 mi Variable 3.5 mph - N/A Snow Light Snow
7:00 AM 21 °F - 20 °F 93% 29.89 in 2 mi Calm Calm - - Snow Light Snow
7:00 AM 21.2 °F - 19.4 °F 93% 29.86 in 2.2 mi Variable 2.3 mph - N/A Snow Light Snow
7:30 AM 21.2 °F - 19.4 °F 93% 29.86 in 2.2 mi Calm Calm - N/A Snow Light Snow
8:00 AM 21.2 °F - 19.4 °F 93% 29.86 in 2.2 mi Calm Calm - N/A Snow Light Snow
8:30 AM 21.2 °F - 19.4 °F 93% 29.89 in 1.6 mi Variable 1.2 mph - N/A Snow Light Snow
9:00 AM 21.2 °F - 19.4 °F 93% 29.89 in 0.8 mi Variable 1.2 mph - N/A Snow Snow
9:30 AM 23.0 °F - 19.4 °F 86% 29.89 in 0.9 mi Calm Calm - N/A Snow Light Snow
10:00 AM 23 °F - 20 °F 86% 29.94 in 1 mi Calm Calm - - Snow Light Snow
10:00 AM 23.0 °F - 19.4 °F 86% 29.89 in 0.9 mi Calm Calm - N/A Snow Light Snow
10:30 AM 23.0 °F - 21.2 °F 93% 29.89 in 1.0 mi Calm Calm - N/A Snow Light Snow
11:00 AM 23.0 °F - 21.2 °F 93% 29.92 in 1.6 mi Calm Calm - N/A Snow Light Snow
11:30 AM 24.8 °F - 21.2 °F 86% 29.92 in 2.5 mi Calm Calm - N/A Snow Light Snow
12:00 PM 24.8 °F - 21.2 °F 86% 29.92 in 2.5 mi Variable 1.2 mph - N/A   Scattered Clouds
12:30 PM 24.8 °F - 21.2 °F 86% 29.92 in 2.2 mi Variable 1.2 mph - N/A Snow Light Snow
1:00 PM 24 °F - 20 °F 81% 29.95 in 2 mi West 2.2 mph - - Snow Light Snow
1:00 PM 24.8 °F 19.1 °F 19.4 °F 80% 29.92 in 2.2 mi WSW 4.6 mph - N/A Snow Light Snow
1:30 PM 23.0 °F 15.8 °F 21.2 °F 93% 29.92 in 2.2 mi WSW 5.8 mph - N/A   Mostly Cloudy
2:00 PM 23.0 °F 15.8 °F 19.4 °F 86% 29.92 in 2.2 mi WNW 5.8 mph - N/A   Mostly Cloudy
2:30 PM 23.0 °F 18.4 °F 19.4 °F 86% 29.92 in 2.5 mi Variable 3.5 mph - N/A   Mostly Cloudy
3:00 PM 23.0 °F - 19.4 °F 86% 29.92 in 3.1 mi Variable 2.3 mph - N/A   Mostly Cloudy
3:30 PM 23.0 °F 18.4 °F 19.4 °F 86% 29.95 in 3.1 mi Variable 3.5 mph - N/A   Mostly Cloudy
4:00 PM 23 °F - 21 °F 87% 29.99 in 2 mi Calm Calm - -   Mist
4:00 PM 23.0 °F 18.4 °F 19.4 °F 86% 29.95 in 2.5 mi Variable 3.5 mph - N/A   Mostly Cloudy
4:30 PM 23.0 °F 18.4 °F 19.4 °F 86% 29.95 in 2.5 mi Variable 3.5 mph - N/A   Mostly Cloudy
5:00 PM 23.0 °F 18.4 °F 19.4 °F 86% 29.98 in 3.1 mi Variable 3.5 mph - N/A   Mostly Cloudy
5:30 PM 23.0 °F - 21.2 °F 93% 29.98 in 3.1 mi Variable 2.3 mph - N/A   Mostly Cloudy
6:00 PM 23.0 °F 18.4 °F 21.2 °F 93% 29.98 in 2.5 mi WSW 3.5 mph - N/A   Mostly Cloudy
6:30 PM 23.0 °F 18.4 °F 21.2 °F 93% 29.98 in 3.1 mi Variable 3.5 mph - N/A   Mostly Cloudy
7:00 PM 23 °F - 20 °F 84% 30.02 in 3 mi Calm Calm - -   Mist
7:00 PM 23.0 °F 18.4 °F 19.4 °F 86% 29.98 in 3.1 mi Variable 3.5 mph - N/A   Mostly Cloudy
7:30 PM 23.0 °F 18.4 °F 19.4 °F 86% 30.01 in 3.1 mi Variable 3.5 mph - N/A   Mostly Cloudy
8:00 PM 19.4 °F 14.3 °F 17.6 °F 93% 30.01 in 2.5 mi SSW 3.5 mph - N/A   Scattered Clouds
8:30 PM 17.6 °F 10.7 °F 17.6 °F 100% 30.01 in 2.5 mi SW 4.6 mph - N/A   Mostly Cloudy
9:00 PM 19.4 °F 14.3 °F 17.6 °F 93% 30.01 in 2.5 mi Variable 3.5 mph - N/A   Scattered Clouds
9:30 PM 19.4 °F 12.8 °F 15.8 °F 86% 30.01 in 2.5 mi WSW 4.6 mph - N/A   Scattered Clouds
10:00 PM 17 °F - 15 °F 85% 30.04 in 2 mi Calm Calm - -   Mist
10:00 PM 15.8 °F 10.2 °F 14.0 °F 93% 30.01 in 2.5 mi Variable 3.5 mph - N/A   Partly Cloudy
10:30 PM 15.8 °F 8.6 °F 14.0 °F 93% 30.01 in 2.5 mi Variable 4.6 mph - N/A   Mist
11:00 PM 15.8 °F 8.6 °F 14.0 °F 93% 30.01 in 2.5 mi Variable 4.6 mph - N/A   Mist
11:30 PM 15.8 °F 10.2 °F 14.0 °F 93% 30.01 in 2.5 mi Variable 3.5 mph - N/A   Scattered Clouds